Weather History for Seward, AK

Change the Weather History Date:

Tuesday, March 25, 2014

  Actual Average Record
Temperature  
Mean Temperature 37 °F -  
Max Temperature 48 °F 39 °F 70 °F (2003)
Min Temperature 26 °F 28 °F 10 °F (1962)
Degree Days  
Heating Degree Days 28    
Moisture  
Dew Point 14 °F    
Average Humidity 44    
Maximum Humidity 66    
Minimum Humidity 18    
Precipitation  
Precipitation 0.00 in - - ()
Sea Level Pressure  
Sea Level Pressure 29.79 in    
Wind  
Wind Speed 10 mph (NNE)    
Max Wind Speed 14 mph    
Max Gust Speed 22 mph    
Visibility 10 miles    
Events      
Averages and records for this station are not official NWS values.
T = Trace of Precipitation, MM = Missing Value Source: NWS Daily Summary

Daily Weather History Graph

Daily Weather History Graph

Search for Another Location

Airport:

Trip Planner

Search our weather history database for the weather conditions in past years. The results will help you decide how hot, cold, wet, or windy it might be!

Date:

Astronomy

Mar. 25, 2014 Rise Set
Actual Time 7:43 AM AKDT 8:25 PM AKDT
Civil Twilight 7:01 AM AKDT 9:07 PM AKDT
Nautical Twilight 6:09 AM AKDT 9:59 PM AKDT
Astronomical Twilight 5:12 AM AKDT 10:57 PM AKDT
Moon 5:29 AM AKDT (3/25) 1:54 PM AKDT (3/25)
Length of Visible Light 14h 06m
Length of Day
12h 41m
Waning Crescent, 30% of the Moon is Illuminated
Mar 25
Waning Crescent
Mar 30
New
Apr 7
First Quarter
Apr 14
Full
Apr 21
Last Quarter

Hourly Weather History & Observations

Time (AKDT) Temp. Windchill Dew Point Humidity Pressure Visibility Wind Dir Wind Speed Gust Speed Precip Events Conditions
12:53 AM 30.9 °F 21.2 °F 12.0 °F 46% 29.90 in 10.0 mi North 12.7 mph - N/A   Clear
1:53 AM 30.0 °F 19.5 °F 12.0 °F 47% 29.90 in 10.0 mi NNE 13.8 mph - N/A   Clear
2:53 AM 30.0 °F 20.5 °F 12.0 °F 47% 29.89 in 10.0 mi NNE 11.5 mph - N/A   Clear
3:53 AM 28.9 °F 19.2 °F 12.0 °F 49% 29.88 in 10.0 mi North 11.5 mph - N/A   Clear
4:53 AM 27.0 °F 17.3 °F 12.0 °F 53% 29.87 in 10.0 mi North 10.4 mph - N/A   Clear
5:53 AM 27.0 °F 16.7 °F 10.9 °F 51% 29.85 in 10.0 mi North 11.5 mph 17.3 mph N/A   Clear
6:53 AM 26.1 °F 15.6 °F 10.9 °F 53% 29.84 in 10.0 mi North 11.5 mph - N/A   Clear
7:53 AM 27.0 °F 18.0 °F 10.9 °F 51% 29.83 in 10.0 mi North 9.2 mph - N/A   Clear
8:53 AM 28.9 °F 18.6 °F 10.0 °F 45% 29.82 in 10.0 mi North 12.7 mph 19.6 mph N/A   Clear
9:53 AM 32.0 °F 23.6 °F 10.9 °F 42% 29.81 in 10.0 mi North 10.4 mph 17.3 mph N/A   Partly Cloudy
10:53 AM 34.0 °F 25.5 °F 10.9 °F 38% 29.80 in 10.0 mi North 11.5 mph 21.9 mph N/A   Clear
11:53 AM 39.9 °F 33.9 °F 10.9 °F 31% 29.79 in 10.0 mi NNE 9.2 mph - N/A   Clear
12:53 PM 42.1 °F 35.7 °F 10.0 °F 27% 29.78 in 10.0 mi NNE 11.5 mph 18.4 mph N/A   Clear
1:53 PM 45.0 °F 40.6 °F 9.0 °F 23% 29.76 in 10.0 mi NNE 8.1 mph - N/A   Clear
2:53 PM 48.0 °F - 7.0 °F 19% 29.75 in 10.0 mi North 4.6 mph - N/A   Clear
3:53 PM 48.9 °F - 6.1 °F 18% 29.73 in 10.0 mi Variable 4.6 mph - N/A   Clear
4:53 PM 44.1 °F 40.8 °F 28.0 °F 53% 29.72 in 10.0 mi Variable 5.8 mph - N/A   Clear
5:53 PM 42.1 °F 38.4 °F 25.0 °F 51% 29.71 in 10.0 mi SSE 5.8 mph - N/A   Clear
6:53 PM 41.0 °F 39.0 °F 26.1 °F 55% 29.71 in 10.0 mi SE 3.5 mph - N/A   Clear
7:53 PM 37.9 °F - 25.0 °F 60% 29.71 in 10.0 mi Calm Calm - N/A   Clear
8:53 PM 33.1 °F - 23.0 °F 66% 29.71 in 10.0 mi Calm Calm - N/A   Clear
9:53 PM 35.1 °F 27.9 °F 15.1 °F 44% 29.70 in 10.0 mi North 9.2 mph - N/A   Clear
10:53 PM 35.1 °F 26.9 °F 12.9 °F 40% 29.69 in 10.0 mi North 11.5 mph - N/A   Clear
11:53 PM 34.0 °F 25.5 °F 14.0 °F 44% 29.69 in 10.0 mi NNE 11.5 mph - N/A   Overcast